Content
SEND FEEDBACK

Daily
Averages
Monthly
Summary
Ghana

ACCRA, GHANA


Home > Africa > Ghana
Elevation: 226 feet     Latitude: 05 36N     Longitude: 000 10W

WEATHER
 
SELECT A DAY
Number of Records: 93,961;   Date Range: 7/1/96 - 11/21/14
 
SHARE

PRINT THIS DATA

[ ← Previous Day ]
WEATHER ALMANAC - JUNE 26, 2013
[ Next Day → ]
[ °C ]   °F
We're sorry. There is no daily almanac available for Accra, Ghana on June 26, 2013.
WEATHER BY HOUR - JUNE 26, 2013
[ °C ]   °F
Local TimeTemperatureDewpointHumidityBarometerVisibilityWind DirectionWind SpeedGust SpeedPrecipitationEventsConditions
1:00 AM75.2 °F71.6 °F89 %29.92 inWSW (250°)6.9 mphClear
2:00 AM73.4 °F71.6 °F94 %29.89 inWest (260°)8.1 mphClear
2:56 AM73.4 °F71.6 °F94 %29.92 inWest (270°)4.6 mphClear
3:00 AM75.0 °F71.0 °F83 %29.92 in9.0 miWest (270°)2.3 mphScattered Clouds
4:57 AM73.4 °F71.6 °F94 %29.92 inWest (260°)6.9 mphClear
6:51 AM73.4 °F71.6 °F94 %29.95 in6.2 miWest (270°)9.2 mphPartly Cloudy
7:56 AM75.2 °F71.6 °F89 %29.98 in6.2 miWest (270°)9.2 mphPartly Cloudy
8:58 AM78.8 °F71.6 °F78 %29.98 in6.2 miWSW (240°)8.1 mphMostly Cloudy
9:00 AM80.0 °F71.0 °F69 %29.99 in6.0 miWest (270°)5.8 mphMostly Cloudy
10:00 AM80.6 °F71.6 °F74 %29.98 in6.2 miWest (260°)8.1 mphPartly Cloudy
10:55 AM82.4 °F69.8 °F66 %29.95 in6.2 miWSW (250°)11.5 mphPartly Cloudy
11:58 AM84.2 °F71.6 °F66 %29.92 in6.2 miSSW (210°)12.7 mphPartly Cloudy
12:00 PM86.0 °F70.0 °F49 %29.94 in7.0 miSouth (180°)11.5 mphPartly Cloudy
12:55 PM82.4 °F71.6 °F70 %29.92 in6.2 miSSW (200°)15.0 mphPartly Cloudy
1:55 PM84.2 °F71.6 °F66 %29.89 inSSW (210°)16.1 mphClear
2:57 PM82.4 °F71.6 °F70 %29.86 inSSW (200°)18.4 mphClear
3:00 PM85.0 °F75.0 °F66 %29.89 in9.0 miSouth (190°)17.3 mphScattered Clouds
3:56 PM82.4 °F71.6 °F70 %29.86 inSSW (200°)17.3 mphClear
4:56 PM80.6 °F71.6 °F74 %29.86 inSSW (200°)17.3 mphClear
5:55 PM78.8 °F69.8 °F74 %29.86 inSW (220°)16.1 mphClear
6:55 PM78.8 °F71.6 °F78 %29.86 inSSW (210°)16.1 mphClear
8:00 PM78.8 °F73.4 °F83 %29.89 in6.2 miSSW (210°)11.5 mphPartly Cloudy
9:00 PM78.0 °F72.0 °F77 %29.95 in9.0 miSW (220°)11.5 mphPartly Cloudy
9:00 PM78.8 °F73.4 °F83 %29.92 in6.2 miSW (230°)11.5 mphPartly Cloudy
10:00 PM77.0 °F73.4 °F89 %29.95 in6.2 miWSW (240°)10.4 mphPartly Cloudy
11:00 PM77.0 °F73.4 °F89 %29.98 in6.2 miSW (220°)9.2 mphPartly Cloudy
Hourly data recorded from DGAA, located miles away from Accra, Ghana







STORIES FROM OUR PARTNERS